FW1093 Weather Reports


Display with metric or nautical units.
time (UTC)temp
F
wind
direction
speed
MPH
gust
MPH
rain 1hr
in
rain 24hr
in
rain mn
in
humidity
%
barometer
mb
20260503030322 44 254 0.0 0.0 0.00 0.05 0.05 72 1011.3
20260503025314 44 254 0.0 0.0 0.00 0.05 0.05 71 1011.4
20260503024336 44 254 0.0 0.0 0.00 0.05 0.05 70 1011.5
20260503023330 45 254 0.0 0.0 0.00 0.05 0.05 70 1011.7
20260503022323 45 254 0.0 0.0 0.00 0.05 0.05 69 1011.6
20260503021318 45 254 0.0 0.0 0.00 0.05 0.05 65 1011.7
20260503020314 45 254 0.0 0.0 0.00 0.05 0.05 64 1011.7
20260503015350 46 254 0.0 0.0 0.00 0.05 0.05 62 1011.7
20260503014350 46 254 0.0 0.0 0.00 0.05 0.05 62 1011.6
20260503013323 46 254 0.0 0.0 0.00 0.05 0.05 65 1011.6
20260503012318 45 254 0.0 0.0 0.00 0.05 0.05 66 1011.4
20260503011335 46 255 0.0 0.0 0.00 0.05 0.05 67 1011.5
20260503010338 46 255 0.0 0.0 0.00 0.05 0.05 66 1011.5
20260503005316 47 244 0.0 0.0 0.00 0.05 0.05 65 1011.4
20260503004337 47 245 0.0 2.0 0.00 0.05 0.05 66 1011.3
20260503003334 47 234 0.0 0.0 0.00 0.05 0.05 71 1011.1
20260503002328 47 288 0.0 0.0 0.00 0.05 0.05 69 1010.9
20260503001321 48 288 0.0 0.0 0.00 0.05 0.05 69 1010.8
20260503000315 49 288 0.0 0.0 0.00 0.05 0.05 69 1010.8
20260502235335 50 288 0.0 0.0 0.00 0.05 0.05 67 1010.6
20260502234334 51 288 0.0 0.0 0.00 0.05 0.05 63 1010.6
20260502233333 52 288 0.0 0.0 0.00 0.05 0.05 61 1010.5
20260502232352 53 288 0.0 0.0 0.00 0.05 0.05 58 1010.5
20260502231353 55 288 0.0 3.0 0.00 0.05 0.05 50 1010.4
20260502230324 55 305 0.0 5.0 0.00 0.05 0.05 49 1010.3
20260502224349 57 274 1.0 4.0 0.00 0.05 0.05 49 1010.3
20260502223326 57 265 1.0 6.0 0.00 0.05 0.05 50 1010.2
20260502222320 58 280 1.0 4.0 0.00 0.05 0.05 52 1010.2
20260502221338 57 353 1.0 3.0 0.00 0.05 0.05 50 1010.1
20260502220336 57 280 0.0 3.0 0.00 0.05 0.05 52 1010.0
20260502215335 58 69 1.0 5.0 0.00 0.05 0.05 48 1009.9
20260502214331 60 345 1.0 5.0 0.00 0.05 0.05 44 1009.8
20260502213349 61 186 0.0 3.0 0.00 0.05 0.05 44 1009.8
20260502212348 60 302 1.0 3.0 0.00 0.05 0.05 45 1009.8
20260502211323 59 337 0.0 3.0 0.00 0.05 0.05 45 1009.7
20260502210342 60 292 0.0 3.0 0.00 0.05 0.05 46 1009.7
20260502205315 59 260 0.0 4.0 0.00 0.05 0.05 44 1009.9
20260502204325 60 287 2.0 3.0 0.00 0.05 0.05 45 1010.1
20260502203322 59 176 1.0 4.0 0.00 0.05 0.05 51 1010.2
20260502202312 59 37 1.0 4.0 0.00 0.05 0.05 48 1010.2
20260502201331 59 321 1.0 2.0 0.00 0.05 0.05 54 1010.3
20260502200323 58 283 0.0 2.0 0.00 0.05 0.05 50 1010.5
20260502195316 58 281 2.0 3.0 0.00 0.05 0.05 54 1010.6
20260502194338 57 36 1.0 6.0 0.00 0.05 0.05 55 1010.7
20260502193334 57 293 1.0 3.0 0.00 0.05 0.05 56 1010.9
20260502192329 56 276 0.0 4.0 0.00 0.05 0.05 58 1011.1
20260502191324 56 339 1.0 3.0 0.00 0.05 0.05 60 1011.2
20260502190317 55 287 1.0 5.0 0.00 0.05 0.05 58 1011.4
20260502185311 54 277 1.0 3.0 0.00 0.05 0.05 62 1011.4
20260502184334 54 285 1.0 4.0 0.00 0.05 0.05 63 1011.7
20260502183331 53 278 1.0 3.0 0.00 0.05 0.05 69 1011.6
20260502182326 52 289 0.0 3.0 0.00 0.05 0.05 71 1011.8
20260502181319 51 284 1.0 3.0 0.00 0.05 0.05 72 1011.8
20260502180329 51 281 0.0 3.0 0.00 0.05 0.05 73 1011.8
20260502170332 50 252 0.0 5.0 0.00 0.05 0.05 78 1011.9
20260502164318 53 77 2.0 6.0 0.00 0.05 0.05 75 1011.6
20260502163312 55 321 1.0 4.0 0.00 0.05 0.05 69 1011.4
20260502162330 56 340 0.0 1.0 0.00 0.05 0.05 69 1011.4
20260502161352 56 2 0.0 2.0 0.00 0.05 0.05 69 1011.3
20260502160352 56 15 1.0 3.0 0.00 0.05 0.05 69 1011.6
20260502152329 55 240 0.0 1.0 0.00 0.05 0.05 78 1011.7
20260502151321 54 136 0.0 1.0 0.00 0.05 0.05 76 1012.0
20260502150340 54 184 0.0 1.0 0.00 0.05 0.05 78 1012.0
20260502130315 49 276 0.0 1.0 0.00 0.05 0.05 93 1012.3
20260502123321 48 278 0.0 0.0 0.00 0.05 0.05 95 1012.2
20260502122315 48 278 0.0 0.0 0.00 0.05 0.05 95 1012.1
20260502121354 48 278 0.0 1.0 0.00 0.05 0.05 95 1012.2
20260502120330 48 125 0.0 0.0 0.01 0.05 0.05 95 1012.2
20260502115320 48 125 0.0 1.0 0.02 0.05 0.05 95 1012.0
20260502114340 47 124 0.0 1.0 0.03 0.05 0.05 95 1012.1
20260502113315 47 124 0.0 1.0 0.03 0.05 0.05 95 1012.1
20260502112356 46 124 0.0 0.0 0.03 0.05 0.05 95 1012.3
20260502111328 46 124 0.0 0.0 0.03 0.05 0.05 95 1012.4
20260502110325 46 124 0.0 1.0 0.02 0.04 0.04 95 1012.4
20260502105317 46 124 0.0 0.0 0.01 0.03 0.03 94 1012.1
20260502104314 46 124 0.0 0.0 0.00 0.02 0.02 94 1012.4
20260502103336 46 124 0.0 0.0 0.00 0.02 0.02 94 1012.2
20260502102329 46 124 0.0 0.0 0.00 0.02 0.02 94 1012.2
20260502101325 46 124 0.0 0.0 0.00 0.02 0.02 94 1012.2
20260502100316 46 124 0.0 0.0 0.00 0.02 0.02 94 1012.2
20260502091316 46 124 0.0 0.0 0.02 0.02 0.02 93 1011.8
20260502090337 46 124 0.0 0.0 0.02 0.02 0.02 93 1011.6
20260502071337 47 124 0.0 0.0 0.00 0.00 0.00 90 1011.6
20260502070333 47 124 0.0 0.0 0.00 0.00 0.00 89 1012.0
20260502065322 47 124 0.0 0.0 0.00 0.00 0.00 89 1011.7
20260502064316 47 124 0.0 0.0 0.00 0.00 0.00 88 1012.1
20260502063327 47 124 0.0 0.0 0.00 0.00 0.00 87 1011.9
20260502062346 48 124 0.0 0.0 0.00 0.00 0.00 85 1012.0
20260502061318 48 124 0.0 0.0 0.00 0.00 0.00 84 1011.8
20260502060313 48 124 0.0 0.0 0.00 0.00 0.00 82 1011.9
20260502055330 48 124 0.0 0.0 0.00 0.00 0.00 81 1012.0
20260502054351 48 124 0.0 0.0 0.00 0.00 0.00 81 1012.1
20260502053350 49 124 0.0 0.0 0.00 0.00 0.00 80 1012.2
20260502052324 49 124 0.0 1.0 0.00 0.00 0.00 79 1011.8
20260502051318 49 124 0.0 1.0 0.00 0.00 0.00 78 1012.1
20260502050314 49 124 0.0 1.0 0.00 0.00 0.00 78 1012.3
20260502045318 49 146 0.0 1.0 0.00 0.00 0.00 78 1012.1
20260502044312 49 147 0.0 0.0 0.00 0.00 0.00 78 1012.1
20260502043333 49 148 0.0 0.0 0.00 0.00 0.00 78 1012.1
20260502042331 49 148 0.0 1.0 0.00 0.00 0.00 78 1012.1
20260502041321 48 137 0.0 0.0 0.00 0.00 0.00 78 1012.2
20260502040320 48 138 0.0 0.0 0.00 0.00 0.00 77 1012.2
20260502035332 49 137 0.0 0.0 0.00 0.00 0.00 77 1012.2
20260502034329 49 138 0.0 0.0 0.00 0.00 0.00 75 1012.1
20260502033321 50 138 0.0 0.0 0.00 0.00 0.00 74 1012.2
20260502032315 50 137 0.0 0.0 0.00 0.00 0.00 74 1012.3
20260502031330 50 138 0.0 0.0 0.00 0.00 0.00 73 1012.3